Overview Statistics Trail Chart Weather Telemetry Raw packets
 

This is the latest recevied weather packets stored in our database for station/object OK1FET-4. If no packets are shown the sender has not sent any weather packets the latest 10 day(s).

<< 13 14 15 16 17 18 19 >>
Time Temp. Humidity Pressure Rain* Wind** Luminosity Snow
1788561674 19.44° C 64% 1014.3 hPa - - - -
1788561373 20° C 62% 1013.7 hPa - - - -
1788561072 21.11° C 60% 1013.2 hPa - - - -
1788560771 22.78° C 58% 1013.2 hPa - - - -
1788560469 23.33° C 57% 1012.8 hPa - - - -
1788560168 23.89° C 57% 1012.6 hPa - - - -
1788559867 23.89° C 57% 1012.5 hPa - - - -
1788559566 23.89° C 57% 1012.5 hPa - - - -
1788559265 23.89° C 56% 1012.4 hPa - - - -
1788558964 23.89° C 57% 1012.4 hPa - - - -
1788558662 23.89° C 57% 1012.4 hPa - - - -
1788558361 23.89° C 57% 1012.3 hPa - - - -
1788558060 23.89° C 57% 1012.2 hPa - - - -
1788557759 23.89° C 56% 1012.2 hPa - - - -
1788557458 23.89° C 57% 1012.1 hPa - - - -
1788557156 23.89° C 57% 1012.1 hPa - - - -
1788556855 23.89° C 57% 1012.1 hPa - - - -
1788556554 23.89° C 57% 1011.9 hPa - - - -
1788556253 23.89° C 57% 1011.9 hPa - - - -
1788555952 23.89° C 56% 1011.9 hPa - - - -
1788555651 23.89° C 56% 1011.9 hPa - - - -
1788555349 24.44° C 55% 1011.8 hPa - - - -
1788555048 24.44° C 55% 1011.9 hPa - - - -
1788554747 24.44° C 55% 1011.9 hPa - - - -
1788554446 24.44° C 55% 1011.9 hPa - - - -

* Rain since midnight (hover to see other rain measurements)
** Current wind speed in m/s (hover to see current wind gust speed)